Skip Page Navigation
NASA JPL Caltech
NASA Logo - Jet Propulsion Laboratory + View the NASA Portal
+ Center for Near-Earth Object Studies
JPL Home Earth Solar System Stars & Galaxies Technology
JPL Solar System Dynamics
BODIES ORBITS EPHEMERIDES TOOLS PHYSICAL DATA DISCOVERY FAQ SITE MAP
IMPORTANT: The SSD Announcement email list is now available. Major changes are coming in the near future, including possible hostname and/or URL changes. To be notified of such changes, subscribe to this email list.

Please visit this page for more details.


JPL Small-Body Database Browser
Search: [ help ]  
215210 (2000 SB351)
Classification: Main-belt Asteroid          SPK-ID: 2215210
Ephemeris | Orbit Diagram | Orbital Elements | Mission Design | Physical Parameters | Discovery Circumstances ]

[ show orbit diagram ]
Orbital Elements at Epoch 2459000.5 (2020-May-31.0) TDB
Reference: JPL 14 (heliocentric ecliptic J2000)
 Element Value Uncertainty (1-sigma)   Units 
e .1461478507547329 9.0418e-08  
a 3.048718181926396 4.0192e-08 au
q 2.603154572080976 2.6966e-07 au
i 17.37804130116596 7.5675e-06 deg
node 61.08126815515921 2.6327e-05 deg
peri 304.4972029658801 3.5415e-05 deg
M 249.7780802506055 2.7896e-05 deg
tp 2459595.805394786889
(2022-Jan-16.30539479)
0.00015711 TDB
period 1944.349568675131
5.32
3.8449e-05
1.053e-07
d
yr
n .1851518913058942 3.6614e-09 deg/d
Q 3.494281791771815 4.6066e-08 au
  Orbit Determination Parameters
   # obs. used (total)      241  
   data-arc span      7059 days (19.33 yr)  
   first obs. used      2000-09-29  
   last obs. used      2020-01-27  
   planetary ephem.      DE431  
   SB-pert. ephem.      SB431-N16  
   condition code      0  
   norm. resid. RMS      .61976  
   source      ORB  
   producer      Otto Matic  
   solution date      2020-Feb-25 03:20:28  

Additional Information
 Earth MOID = 1.64688 au 
 Jupiter MOID = 2.07103 au 
 T_jup = 3.152 
[ show covariance matrix ]

Ephemeris | Orbit Diagram | Orbital Elements | Mission Design | Physical Parameters | Discovery Circumstances ]

Physical Parameter Table
Parameter Symbol Value Units Sigma Reference Notes
absolute magnitude H 15.2   n/a MPO254381  
diameter diameter 5.177 km 0.388 urn:nasa:pds:neowise_diameters_albedos::2.0[mainbelt] (http://adsabs.harvard.edu/abs/2011ApJ...741...68M)  
geometric albedo albedo 0.055   0.008 urn:nasa:pds:neowise_diameters_albedos::2.0[mainbelt] (http://adsabs.harvard.edu/abs/2011ApJ...741...68M)  

215210 (2000 SB351)          Discovered 2000-Sep-29 by LONEOS at Anderson Mesa
Reference: 20090607/Numbers.arcLast Updated: 2009-06-08

Alternate Designations
 2000 SB351 = 2005 OD31 
Ephemeris | Orbit Diagram | Orbital Elements | Mission Design | Physical Parameters | Discovery Circumstances ]
ABOUT SSD CREDITS/AWARDS PRIVACY/COPYRIGHT GLOSSARY LINKS
FirstGov 2020-Jun-04 10:45 UT
(server date/time)  
NASA Home Page
Site Manager:   Ryan S. Park
Webmaster  Alan B. Chamberlin